Preview of NWS' New Version of Forecast
This preview is not operational and should not be used for support decisions.

Regional Weather Roundup (RWR)

Issued by National Weather Service (NWS)

                            
000
ASUS42 KTBW 201315
RWRFL 
FLORIDA REGIONAL WEATHER ROUNDUP
NATIONAL WEATHER SERVICE TAMPA BAY RUSKIN FL
900 AM EDT SAT APR 20 2019

NOTE: "FAIR" INDICATES FEW OR NO CLOUDS BELOW 12,000 FEET WITH NO
SIGNIFICANT WEATHER AND/OR OBSTRUCTIONS TO VISIBILITY.

FLZ001>010-012>015-112-114-115-201400-
PANHANDLE FLORIDA
  
CITY           SKY/WX    TMP DP  RH WIND       PRES   REMARKS
PENSACOLA      FAIR      58  46  64 W9        29.94R                  
PENSACOLA NAS  FAIR      60  49  66 VRB5      29.94R                  
MILTON NAS     FAIR      54  46  74 W12       29.93R                  
CRESTVIEW      FAIR      53  43  68 W9        29.94R                  
DUKE FIELD     FAIR      55  43  63 W12       29.92R                  
MARY ESTHER    MOSUNNY   59  47  65 W12G21    29.92R                  
PANAMA CITY    FAIR      55  43  63 W8        29.92S                  
TYNDALL AFB    FAIR      60  45  58 W16       29.94S                  
APALACHICOLA   FAIR      57  42  57 W9        29.95R                  

STATION/POSITION SKY/WX   TEMP    WIND        PRES    WAVE   SWELL
                          AIR SEA DIR/SP/G            HT/PER HT/PER
                          (F)     (DEG/KT/KT) (MB)    (FT/S) (FT/S)
30.1N   87.6W                                 1014.4R   4/ 4   2/ 7
29.2N   88.2W                     280/ 17/ 21 1015.9R   4/ 5   2/ 8
PANAMA CITY BEAC           59 68  270/ 19/ 20 1014.0R
TOWER C          NOT AVBL

$$
FLZ011-016>038-118-127-128-134-139-239-201400-
NORTH FLORIDA
  
CITY           SKY/WX    TMP DP  RH WIND       PRES   REMARKS
MARIANNA       FAIR      52  44  74 W10       29.91R                  
TALLAHASSEE    PTSUNNY   53  43  68 W15       29.93R                  
PERRY          FAIR      55  43  62 W16       29.95R                  
LIVE OAK       SUNNY     54  43  66 SW15G23   29.91R                  
CROSS CITY     FAIR      57  53  85 W12       29.93S                  
LAKE CITY      CLOUDY    54  43  66 W14       29.92R                  
GAINESVILLE    FAIR      60  53  77 NW8       29.94R                  
PALATKA        FAIR     N/A N/A N/A SW8       29.91S                  
MAYPORT NAS    FAIR      61  46  57 W12       29.89R                  
JACKSONVILLE   PTSUNNY   56  47  71 SW10      29.90R                  
JAX NAS        PTSUNNY   58  47  66 W9        29.91R                  
JAX CECIL      PTSUNNY   55  48  76 W7        29.91R                  
FERNANDINA BEA CLOUDY    60  48  64 W17       29.89R                  
ST AUGUSTINE   FAIR      62  53  72 SW8       29.91R                  
PALM COAST     SUNNY     63  55  77 SW8       29.91R                  

STATION/POSITION SKY/WX   TEMP    WIND        PRES    WAVE   SWELL
                          AIR SEA DIR/SP/G            HT/PER HT/PER
                          (F)     (DEG/KT/KT) (MB)    (FT/S) (FT/S)
SHELL POINT      NOT AVBL
KEATON BEACH               58     290/ 23/ 29 1014.0R
CEDAR KEY                  63     270/ 14/ 19 1012.7R
FERNANDINA                 61 70  230/  5/  9 1012.7R
30.7N   81.3W                 67                N/A     3/ 7
MAYPORT                    60 68  250/ 12/ 15 1012.1R
31.4N   80.9W              60 66  230/ 19/ 23 1010.8R   4/ 6   2/ 8
ST AUGUSTINE               63 71  240/  9/ 11 1012.6R

$$
FLZ040-043>046-052-053-057-058-063-144-201400-
INTERIOR CENTRAL FLORIDA
  
CITY           SKY/WX    TMP DP  RH WIND       PRES   REMARKS
OCALA          LGT RAIN  64  54  69 W10       29.94R                  
LEESBURG       FAIR      63  54  72 SW10      29.94R                  
SANFORD        FAIR      65  55  70 W14       29.94R                  
ORLANDO EXEC   FAIR      65  53  65 W13G23    29.94R                  
ORLANDO INTL   FAIR      66  54  65 W12       29.95R                  
KISSIMMEE      FAIR      65  56  72 W12       29.97R                  
WINTER HAVEN   FAIR      67  56  67 W10       29.97R                  
LAKELAND       MOSUNNY   64  54  68 W10G20    29.96R                  
BARTOW         SUNNY     66  55  68 W14       29.95R                  
SEBRING        FAIR      66  57  72 W10       29.97S                  
OKEECHOBEE     FAIR      66  55  68 W6        29.96S                  

$$
FLZ041-047-054-059-064-141-147-201400-
EAST CENTRAL FLORIDA
  
CITY           SKY/WX    TMP DP  RH WIND       PRES   REMARKS
ORMOND BEACH   SUNNY     61  57  88 S6        29.92R                  
DAYTONA BEACH  FAIR      64  57  78 SW9       29.92R                  
DELAND         FAIR      63  54  72 SW10      29.93R                  
NEW SMYRNA BEA SUNNY     64  55  72 W7        29.94R                  
TITUSVILLE     SUNNY     66  57  72 SW6       29.95R                  
MELBOURNE      FAIR      66  56  70 SW8       29.95R                  
VERO BEACH     FAIR      67  57  70 SW5       29.96R                  
FT PIERCE      FAIR      67  57  70 SW5       29.96R                  
STUART         SUNNY     68  54  60 W8        29.98R                  

STATION/POSITION SKY/WX   TEMP    WIND        PRES    WAVE   SWELL
                          AIR SEA DIR/SP/G            HT/PER HT/PER
                          (F)     (DEG/KT/KT) (MB)    (FT/S) (FT/S)
28.5N   80.2W              69     250/ 14/ 21 1014.2R   3/ 4   2/ 8
28.9N   78.5W              71 78  250/ 19/ 25 1014.1R  10/ 8   2/13
TRIDENT PIER               67 76  220/  8/ 11 1015.1R
28.4N   80.5W                 76                N/A     2/ 7
27.5N   80.2W                 76                N/A     1/ 8

$$
FLZ050-056-061-142-242-148-248-149-249-151-251-155-255-
160-260-201400-
WEST CENTRAL FLORIDA
  
CITY           SKY/WX    TMP DP  RH WIND       PRES   REMARKS
CRYSTAL RIVER  LGT RAIN  64  52  63 W13G24    29.95R                  
INVERNESS      PTSUNNY   63  57  82 W8        29.96R                  
BROOKSVILLE    FAIR      68  51  54 W20G25    29.96R                  
CLEARWATER AIR FAIR      66  50  55 W13G18    29.97R                  
ST PETE CLEARW FAIR      68  50  52 W18G29    29.97R                  
TAMPA INTL     FAIR      69  53  56 W21G28    29.96R                  
PLANT CITY     FAIR      68  54  60 W13G18    29.98S                  
MACDILL AFB    FAIR      69  53  57 W13G22    29.96R                  
PETER O KNIGHT PTSUNNY   70  57  64 W12G21    29.97R                  
ST PETERSBURG  FAIR      66  55  67 W15       29.95R                  
SARASOTA       FAIR      71  54  54 W17       29.96R                  
VENICE         FAIR      72  54  53 W26G32    29.99R                  

STATION/POSITION SKY/WX   TEMP    WIND        PRES    WAVE   SWELL
                          AIR SEA DIR/SP/G            HT/PER HT/PER
                          (F)     (DEG/KT/KT) (MB)    (FT/S) (FT/S)
27.3N   84.2W                 74                N/A    10/ 8   2/11
CLEARWATER BEACH           67 73  260/ 17/ 22 1014.7R
MIDDLE TAMPA BAY           69     300/ 19/ 25 1014.7R
VENICE                     71 75  280/ 20/ 24 1015.2R

$$
FLZ066-069-070-075>078-162-262-165-265-201400-
SOUTHWEST FLORIDA AND KEYS
  
CITY           SKY/WX    TMP DP  RH WIND       PRES   REMARKS
PUNTA GORDA    PTSUNNY   71  55  56 W16G24    29.99R                  
FT MYERS       FAIR      72  56  57 NW14      29.98R                  
SOUTHWEST INTL FAIR      73  53  49 W8        29.98R                  
NAPLES         FAIR      75  55  49 W17G24    29.98R                  
MARCO ISLAND   FAIR      75  52  44 W14G28    30.00R                  
IMMOKALEE      FAIR      72  59  64 W7        29.97R                  
MARATHON       CLOUDY    79  59  50 W15G23    29.99R                  
KEY WEST NAS   PTSUNNY   78  60  53 W15       30.00S                  
KEY WEST INTL  PTSUNNY   76  61  59 W10       30.00S                  

STATION/POSITION SKY/WX   TEMP    WIND        PRES    WAVE   SWELL
                          AIR SEA DIR/SP/G            HT/PER HT/PER
                          (F)     (DEG/KT/KT) (MB)    (FT/S) (FT/S)
NAPLES                     75 77  230/ 17/ 19 1015.4R
DRY TORTUGAS               74     320/ 19/ 22 1016.3R
SAND KEY                   75                 1016.1R
SOMBRERO KEY               75                 1015.1R

$$
FLZ067-068-071>074-168-172>174-201400-
SOUTHEAST FLORIDA 
  
CITY           SKY/WX    TMP DP  RH WIND       PRES   REMARKS
W PALM BEACH   FAIR      71  49  45 W7        29.98R                  
BOCA RATON     PTSUNNY   73  57  56 NW8       29.98                   
FT LAUDER-EXEC PTSUNNY   72  57  59 W8        29.97S                  
FT LAUDERDALE  CLOUDY    71  58  63 NW6       29.97R                  
POMPANO BEACH  FAIR      72  56  57 NW8       29.97R                  
PEMBROKE PINES CLOUDY    71  57  61 W5        30.00R                  
OPA LOCKA      CLOUDY    71  58  63 W5        30.00R                  
MIAMI          CLOUDY    71  59  65 W7        29.99R                  
WEST KENDALL   CLOUDY    71  62  73 NW8       29.98R                  
HOMESTEAD      CLOUDY    71  62  72 NW9       29.98R                  

STATION/POSITION SKY/WX   TEMP    WIND        PRES    WAVE   SWELL
                          AIR SEA DIR/SP/G            HT/PER HT/PER
                          (F)     (DEG/KT/KT) (MB)    (FT/S) (FT/S)
VIRGINIA KEY               72 81  280/  4/  7 1014.8R
LAKE WORTH                 70 78  320/  9/ 12 1016.1R
SETTLEMENT POINT           73     290/ 15/ 18 1015.1R

$$